,,Stat6,,Stat2,,Stat8,,Stat9,,Stat10,,Wind1,,Wind1,
time,status,PA1M_AVG,status,PR1M_SUM,status,RH1M_AVG,status,SR1M_AVG,status,TA1M_AVG,status,W1dAve1m,status,W1sAve1m,
2007-12-01, 00:00:00,VALID,918.579,VALID,0,VALID,96.7119,VALID,0,VALID,20.2664,VALID,131,VALID,1.39996,
2007-12-01, 00:01:00,VALID,918.571,VALID,0,VALID,96.7933,VALID,-0.0169808,VALID,20.2426,VALID,121,VALID,1.70008,
2007-12-01, 00:02:00,VALID,918.558,VALID,0,VALID,96.8836,VALID,0,VALID,20.2302,VALID,123,VALID,1.2698,
2007-12-01, 00:03:00,VALID,918.561,VALID,0,VALID,97.0056,VALID,0,VALID,20.214,VALID,115,VALID,1.31072,
2007-12-01, 00:04:00,VALID,918.544,VALID,0,VALID,97.0857,VALID,0,VALID,20.1907,VALID,129,VALID,1.51935,
2007-12-01, 00:05:00,VALID,918.542,VALID,0,VALID,97.0946,VALID,0.0169808,VALID,20.178,VALID,131,VALID,1.62519,
2007-12-01, 00:06:00,VALID,918.538,VALID,0,VALID,97.0298,VALID,0.0169808,VALID,20.1912,VALID,133,VALID,1.82703,
2007-12-01, 00:07:00,VALID,918.532,VALID,0,VALID,96.9026,VALID,-0.0849042,VALID,20.2122,VALID,130,VALID,2.28161,
2007-12-01, 00:08:00,VALID,918.516,VALID,0,VALID,96.7805,VALID,-0.0849042,VALID,20.2317,VALID,136,VALID,1.97847,
2007-12-01, 00:09:00,VALID,918.528,VALID,0,VALID,96.7399,VALID,-0.101885,VALID,20.2347,VALID,134,VALID,1.44475,
2007-12-01, 00:10:00,VALID,918.518,VALID,0,VALID,96.689,VALID,-0.101885,VALID,20.2347,VALID,124,VALID,2.3631,
2007-12-01, 00:11:00,VALID,918.525,VALID,0,VALID,96.628,VALID,-0.101885,VALID,20.2512,VALID,135,VALID,1.95833,
2007-12-01, 00:12:00,VALID,918.491,VALID,0,VALID,96.5644,VALID,-0.0169808,VALID,20.2529,VALID,86,VALID,1.54706,
2007-12-01, 00:13:00,VALID,918.494,VALID,0,VALID,96.5199,VALID,0,VALID,20.2559,VALID,135,VALID,0.97154,
2007-12-01, 00:14:00,VALID,918.47,VALID,0,VALID,96.5453,VALID,0.0339617,VALID,20.2426,VALID,132,VALID,1.62336,
2007-12-01, 00:15:00,VALID,918.445,VALID,0,VALID,96.5453,VALID,0,VALID,20.2334,VALID,107,VALID,1.26467,
2007-12-01, 00:16:00,VALID,918.43,VALID,0,VALID,96.5453,VALID,0.0169808,VALID,20.2429,VALID,87,VALID,1.8003,
2007-12-01, 00:17:00,VALID,918.416,VALID,0,VALID,96.614,VALID,-0.0169808,VALID,20.2202,VALID,114,VALID,1.57701,
2007-12-01, 00:18:00,VALID,918.391,VALID,0,VALID,96.6852,VALID,0,VALID,20.2107,VALID,105,VALID,1.71189,
2007-12-01, 00:19:00,VALID,918.384,VALID,0,VALID,96.6648,VALID,0,VALID,20.2042,VALID,111,VALID,1.57958,
2007-12-01, 00:20:00,VALID,918.382,VALID,0,VALID,96.7348,VALID,0,VALID,20.181,VALID,121,VALID,1.37715,
2007-12-01, 00:21:00,VALID,918.368,VALID,0,VALID,96.8708,VALID,-0.0169808,VALID,20.1655,VALID,128,VALID,1.89453,
2007-12-01, 00:22:00,VALID,918.338,VALID,0,VALID,96.8746,VALID,-0.0169808,VALID,20.1693,VALID,101,VALID,1.48402,
2007-12-01, 00:23:00,VALID,918.334,VALID,0,VALID,96.8836,VALID,0,VALID,20.1653,VALID,132,VALID,2.06904,
2007-12-01, 00:24:00,VALID,918.314,VALID,0,VALID,96.8632,VALID,0,VALID,20.1658,VALID,127,VALID,1.21512,
2007-12-01, 00:25:00,VALID,918.305,VALID,0,VALID,96.7971,VALID,0.0169808,VALID,20.175,VALID,108,VALID,1.09275,
2007-12-01, 00:26:00,VALID,918.289,VALID,0,VALID,96.7246,VALID,0,VALID,20.175,VALID,116,VALID,1.38885,
2007-12-01, 00:27:00,VALID,918.272,VALID,0,VALID,96.6356,VALID,0,VALID,20.2042,VALID,99,VALID,1.68441,
2007-12-01, 00:28:00,VALID,918.262,VALID,0,VALID,96.6063,VALID,-0.0169808,VALID,20.204,VALID,169,VALID,0.980378,
2007-12-01, 00:29:00,VALID,918.272,VALID,0,VALID,96.614,VALID,-0.0169808,VALID,20.201,VALID,169,VALID,1.06889,
2007-12-01, 00:30:00,VALID,918.268,VALID,0,VALID,96.6572,VALID,0,VALID,20.2047,VALID,103,VALID,0.570898,
2007-12-01, 00:31:00,VALID,918.268,VALID,0,VALID,96.6292,VALID,-0.0169808,VALID,20.2055,VALID,169,VALID,0.75191,
2007-12-01, 00:32:00,VALID,918.287,VALID,0,VALID,96.7043,VALID,-0.0169808,VALID,20.1823,VALID,173,VALID,1.07236,
2007-12-01, 00:33:00,VALID,918.276,VALID,0,VALID,96.7589,VALID,-0.0169808,VALID,20.1753,VALID,170,VALID,0.699751,
2007-12-01, 00:34:00,VALID,918.268,VALID,0,VALID,96.8251,VALID,0,VALID,20.1715,VALID,181,VALID,0.895064,
2007-12-01, 00:35:00,VALID,918.263,VALID,0,VALID,96.8568,VALID,0,VALID,20.1653,VALID,168,VALID,0.796512,
2007-12-01, 00:36:00,VALID,918.255,VALID,0,VALID,96.8988,VALID,0.0169808,VALID,20.1623,VALID,187,VALID,1.84318,
2007-12-01, 00:37:00,VALID,918.26,VALID,0,VALID,96.9484,VALID,0,VALID,20.1588,VALID,171,VALID,1.81001,
2007-12-01, 00:38:00,VALID,918.26,VALID,0,VALID,96.9904,VALID,0,VALID,20.1655,VALID,154,VALID,0.891352,
2007-12-01, 00:39:00,VALID,918.248,VALID,0,VALID,96.9777,VALID,-0.0169808,VALID,20.159,VALID,143,VALID,0.666061,
2007-12-01, 00:40:00,VALID,918.244,VALID,0,VALID,97.0018,VALID,0,VALID,20.1361,VALID,146,VALID,1.02178,
2007-12-01, 00:41:00,VALID,918.223,VALID,0,VALID,97.0717,VALID,0,VALID,20.1363,VALID,135,VALID,1.37863,
2007-12-01, 00:42:00,VALID,918.206,VALID,0,VALID,97.045,VALID,0,VALID,20.1431,VALID,128,VALID,0.957698,
2007-12-01, 00:43:00,VALID,918.2,VALID,0,VALID,97.012,VALID,-0.0509425,VALID,20.1558,VALID,118,VALID,0.579578,
2007-12-01, 00:44:00,VALID,918.187,VALID,0,VALID,97.0171,VALID,-0.0339617,VALID,20.1593,VALID,165,VALID,0.585938,
2007-12-01, 00:45:00,VALID,918.158,VALID,0,VALID,97.0209,VALID,-0.0169808,VALID,20.1558,VALID,162,VALID,0.486374,
2007-12-01, 00:46:00,VALID,918.152,VALID,0,VALID,97.0285,VALID,-0.0679233,VALID,20.1426,VALID,98,VALID,0.831759,
2007-12-01, 00:47:00,VALID,918.142,VALID,0,VALID,97.1442,VALID,0,VALID,20.1204,VALID,94,VALID,0.207667,
2007-12-01, 00:48:00,VALID,918.156,VALID,0,VALID,97.2205,VALID,-0.0509425,VALID,20.1011,VALID,129,VALID,0.464026,
2007-12-01, 00:49:00,VALID,918.14,VALID,0,VALID,97.2371,VALID,-0.0509425,VALID,20.0947,VALID,161,VALID,0.77055,
2007-12-01, 00:50:00,VALID,918.132,VALID,0,VALID,97.3312,VALID,-0.0339617,VALID,20.0747,VALID,164,VALID,1.08929,
2007-12-01, 00:51:00,VALID,918.13,VALID,0,VALID,97.4176,VALID,0,VALID,20.0614,VALID,143,VALID,0.872889,
2007-12-01, 00:52:00,VALID,918.122,VALID,0,VALID,97.4837,VALID,-0.0509425,VALID,20.0322,VALID,137,VALID,1.06545,
2007-12-01, 00:53:00,VALID,918.125,VALID,0,VALID,97.6058,VALID,-0.0169808,VALID,20.016,VALID,167,VALID,1.1944,
2007-12-01, 00:54:00,VALID,918.108,VALID,0,VALID,97.6821,VALID,-0.0339617,VALID,20.0035,VALID,138,VALID,0.894077,
2007-12-01, 00:55:00,VALID,918.081,VALID,0,VALID,97.7902,VALID,-0.0169808,VALID,19.9903,VALID,163,VALID,1.1195,
2007-12-01, 00:56:00,VALID,918.076,VALID,0,VALID,97.8627,VALID,-0.0169808,VALID,19.9806,VALID,167,VALID,1.08854,
2007-12-01, 00:57:00,VALID,918.064,VALID,0,VALID,97.9059,VALID,-0.0169808,VALID,19.9703,VALID,151,VALID,1.66239,
2007-12-01, 00:58:00,VALID,918.04,VALID,0,VALID,97.9186,VALID,0,VALID,19.9903,VALID,158,VALID,1.38477,
2007-12-01, 00:59:00,VALID,918.043,VALID,0,VALID,97.7126,VALID,-0.0169808,VALID,20.0263,VALID,142,VALID,2.25566,
2007-12-01, 01:00:00,VALID,918.026,VALID,0,VALID,97.4443,VALID,0,VALID,20.0644,VALID,140,VALID,1.41959,
2007-12-01, 01:01:00,VALID,918.027,VALID,0,VALID,97.3579,VALID,-0.0169808,VALID,20.0877,VALID,156,VALID,0.436955,
2007-12-01, 01:02:00,VALID,918.03,VALID,0,VALID,97.2663,VALID,-0.0339617,VALID,20.0812,VALID,172,VALID,1.6582,
2007-12-01, 01:03:00,VALID,918.033,VALID,0,VALID,97.2269,VALID,-0.0509425,VALID,20.0939,VALID,165,VALID,0.852325,
2007-12-01, 01:04:00,VALID,918.033,VALID,0,VALID,97.1557,VALID,-0.0509425,VALID,20.1044,VALID,168,VALID,1.63733,
2007-12-01, 01:05:00,VALID,918.022,VALID,0,VALID,97.0908,VALID,-0.0169808,VALID,20.0971,VALID,175,VALID,1.44643,
2007-12-01, 01:06:00,VALID,918.01,VALID,0,VALID,97.0336,VALID,-0.0509425,VALID,20.1171,VALID,154,VALID,1.73103,
2007-12-01, 01:07:00,VALID,918.012,VALID,0,VALID,96.942,VALID,-0.0509425,VALID,20.1201,VALID,141,VALID,1.3065,
2007-12-01, 01:08:00,VALID,917.995,VALID,0,VALID,96.8505,VALID,0,VALID,20.1401,VALID,144,VALID,0.886083,
2007-12-01, 01:09:00,VALID,917.976,VALID,0,VALID,96.8785,VALID,0,VALID,20.1331,VALID,173,VALID,0.783156,
2007-12-01, 01:10:00,VALID,917.956,VALID,0,VALID,96.8759,VALID,-0.0339617,VALID,20.1234,VALID,167,VALID,1.23421,
2007-12-01, 01:11:00,VALID,917.943,VALID,0,VALID,96.8696,VALID,-0.0169808,VALID,20.1333,VALID,153,VALID,1.04421,
2007-12-01, 01:12:00,VALID,917.917,VALID,0,VALID,96.7704,VALID,-0.118866,VALID,20.1379,VALID,155,VALID,1.07587,
2007-12-01, 01:13:00,VALID,917.902,VALID,0,VALID,96.736,VALID,-0.101885,VALID,20.1311,VALID,166,VALID,0.850852,
2007-12-01, 01:14:00,VALID,917.889,VALID,0,VALID,96.7322,VALID,-0.135847,VALID,20.1379,VALID,174,VALID,1.14281,
2007-12-01, 01:15:00,VALID,917.89,VALID,0,VALID,96.6941,VALID,-0.101885,VALID,20.1346,VALID,130,VALID,1.0404,
2007-12-01, 01:16:00,VALID,917.868,VALID,0,VALID,96.6496,VALID,-0.118866,VALID,20.1244,VALID,158,VALID,1.25625,
2007-12-01, 01:17:00,VALID,917.871,VALID,0,VALID,96.6013,VALID,-0.118866,VALID,20.1409,VALID,134,VALID,1.17429,
2007-12-01, 01:18:00,VALID,917.846,VALID,0,VALID,96.511,VALID,-0.101885,VALID,20.1471,VALID,147,VALID,1.35728,
2007-12-01, 01:19:00,VALID,917.829,VALID,0,VALID,96.4321,VALID,-0.101885,VALID,20.1636,VALID,171,VALID,1.07326,
2007-12-01, 01:20:00,VALID,917.799,VALID,0,VALID,96.3749,VALID,-0.118866,VALID,20.1606,VALID,172,VALID,1.3002,
2007-12-01, 01:21:00,VALID,917.784,VALID,0,VALID,96.3507,VALID,-0.118866,VALID,20.1673,VALID,168,VALID,1.02378,
2007-12-01, 01:22:00,VALID,917.769,VALID,0,VALID,96.3584,VALID,-0.152827,VALID,20.1636,VALID,143,VALID,0.751172,
2007-12-01, 01:23:00,VALID,917.776,VALID,0,VALID,96.3876,VALID,-0.169808,VALID,20.1576,VALID,150,VALID,0.856641,
2007-12-01, 01:24:00,VALID,917.76,VALID,0,VALID,96.3978,VALID,-0.135847,VALID,20.1506,VALID,148,VALID,0.786458,
2007-12-01, 01:25:00,VALID,917.721,VALID,0,VALID,96.4296,VALID,-0.118866,VALID,20.1381,VALID,133,VALID,0.585747,
2007-12-01, 01:26:00,VALID,917.718,VALID,0,VALID,96.4283,VALID,-0.135847,VALID,20.1314,VALID,148,VALID,1.07715,
2007-12-01, 01:27:00,VALID,917.703,VALID,0,VALID,96.5135,VALID,-0.0339617,VALID,20.1036,VALID,140,VALID,1.28678,
2007-12-01, 01:28:00,VALID,917.691,VALID,0,VALID,96.6191,VALID,0,VALID,20.0907,VALID,151,VALID,1.26544,
2007-12-01, 01:29:00,VALID,917.673,VALID,0,VALID,96.6419,VALID,0,VALID,20.0941,VALID,151,VALID,1.20422,
2007-12-01, 01:30:00,VALID,917.665,VALID,0,VALID,96.6407,VALID,0,VALID,20.0874,VALID,137,VALID,1.10919,
2007-12-01, 01:31:00,VALID,917.64,VALID,0,VALID,96.6915,VALID,-0.0169808,VALID,20.0682,VALID,158,VALID,1.11109,
2007-12-01, 01:32:00,VALID,917.611,VALID,0,VALID,96.7055,VALID,0,VALID,20.0779,VALID,146,VALID,1.13935,
2007-12-01, 01:33:00,VALID,917.598,VALID,0,VALID,96.628,VALID,-0.0169808,VALID,20.0839,VALID,166,VALID,1.07617,
2007-12-01, 01:34:00,VALID,917.582,VALID,0,VALID,96.4805,VALID,0,VALID,20.0974,VALID,164,VALID,0.948539,
2007-12-01, 01:35:00,VALID,917.555,VALID,0,VALID,96.3711,VALID,0.0169808,VALID,20.1164,VALID,111,VALID,0.882813,
2007-12-01, 01:36:00,VALID,917.541,VALID,0,VALID,96.2516,VALID,0,VALID,20.1164,VALID,157,VALID,1.59323,
2007-12-01, 01:37:00,VALID,917.521,VALID,0,VALID,96.263,VALID,-0.0169808,VALID,20.1031,VALID,165,VALID,0.916853,
2007-12-01, 01:38:00,VALID,917.53,VALID,0,VALID,96.2401,VALID,0,VALID,20.1034,VALID,146,VALID,0.997869,
2007-12-01, 01:39:00,VALID,917.526,VALID,0,VALID,96.2477,VALID,0,VALID,20.1099,VALID,124,VALID,1.14081,
2007-12-01, 01:40:00,VALID,917.534,VALID,0,VALID,96.1943,VALID,0,VALID,20.1131,VALID,108,VALID,0.843564,
2007-12-01, 01:41:00,VALID,917.544,VALID,0,VALID,96.0786,VALID,0,VALID,20.1136,VALID,132,VALID,1.42508,
2007-12-01, 01:42:00,VALID,917.532,VALID,0,VALID,96.0227,VALID,-0.101885,VALID,20.1179,VALID,105,VALID,1.17429,
2007-12-01, 01:43:00,VALID,917.537,VALID,0,VALID,95.9413,VALID,-0.118866,VALID,20.1274,VALID,112,VALID,1.07333,
2007-12-01, 01:44:00,VALID,917.5,VALID,0,VALID,95.8892,VALID,-0.101885,VALID,20.1244,VALID,66,VALID,2.52801,
2007-12-01, 01:45:00,VALID,917.509,VALID,0,VALID,95.748,VALID,-0.0849042,VALID,20.1471,VALID,125,VALID,1.40122,
2007-12-01, 01:46:00,VALID,917.509,VALID,0,VALID,95.687,VALID,-0.0679233,VALID,20.1666,VALID,147,VALID,1.46855,
2007-12-01, 01:47:00,VALID,917.483,VALID,0,VALID,95.7289,VALID,-0.101885,VALID,20.1498,VALID,141,VALID,1.4658,
2007-12-01, 01:48:00,VALID,917.479,VALID,0,VALID,95.5903,VALID,-0.0679233,VALID,20.1601,VALID,130,VALID,2.87051,
2007-12-01, 01:49:00,VALID,917.458,VALID,0,VALID,95.4772,VALID,-0.101885,VALID,20.199,VALID,123,VALID,1.77847,
2007-12-01, 01:50:00,VALID,917.436,VALID,0,VALID,95.3958,VALID,-0.118866,VALID,20.2023,VALID,125,VALID,2.53367,
2007-12-01, 01:51:00,VALID,917.408,VALID,0,VALID,95.3907,VALID,-0.0849042,VALID,20.2115,VALID,147,VALID,1.5423,
2007-12-01, 01:52:00,VALID,917.397,VALID,0,VALID,95.3195,VALID,-0.101885,VALID,20.2217,VALID,152,VALID,1.79542,
2007-12-01, 01:53:00,VALID,917.404,VALID,0,VALID,95.2724,VALID,-0.0849042,VALID,20.2215,VALID,137,VALID,1.66053,
2007-12-01, 01:54:00,VALID,917.399,VALID,0,VALID,95.2368,VALID,-0.101885,VALID,20.2217,VALID,146,VALID,2.38914,
2007-12-01, 01:55:00,VALID,917.378,VALID,0,VALID,95.1554,VALID,-0.0849042,VALID,20.2377,VALID,153,VALID,2.00091,
2007-12-01, 01:56:00,VALID,917.372,VALID,0,VALID,95.1516,VALID,-0.0509425,VALID,20.2542,VALID,153,VALID,1.6955,
2007-12-01, 01:57:00,VALID,917.359,VALID,0,VALID,95.2623,VALID,-0.0679233,VALID,20.2412,VALID,139,VALID,1.10831,
2007-12-01, 01:58:00,VALID,917.347,VALID,0,VALID,95.4339,VALID,-0.118866,VALID,20.2285,VALID,141,VALID,1.75425,
2007-12-01, 01:59:00,VALID,917.346,VALID,0,VALID,95.5662,VALID,-0.0849042,VALID,20.202,VALID,156,VALID,1.81079,
2007-12-01, 02:00:00,VALID,917.331,VALID,0,VALID,95.6577,VALID,-0.101885,VALID,20.1825,VALID,162,VALID,2.09375,
2007-12-01, 02:01:00,VALID,917.326,VALID,0,VALID,95.706,VALID,-0.0849042,VALID,20.1763,VALID,144,VALID,1.61042,
2007-12-01, 02:02:00,VALID,917.315,VALID,0,VALID,95.6514,VALID,-0.0849042,VALID,20.1666,VALID,156,VALID,2.17169,
2007-12-01, 02:03:00,VALID,917.308,VALID,0,VALID,95.5458,VALID,-0.0849042,VALID,20.1798,VALID,157,VALID,2.31659,
2007-12-01, 02:04:00,VALID,917.311,VALID,0,VALID,95.4619,VALID,-0.0849042,VALID,20.1923,VALID,150,VALID,1.57813,
2007-12-01, 02:05:00,VALID,917.304,VALID,0,VALID,95.4352,VALID,-0.101885,VALID,20.2023,VALID,130,VALID,1.64589,
2007-12-01, 02:06:00,VALID,917.281,VALID,0,VALID,95.4212,VALID,-0.0509425,VALID,20.2023,VALID,153,VALID,2.27435,
2007-12-01, 02:07:00,VALID,917.276,VALID,0,VALID,95.3004,VALID,-0.0679233,VALID,20.2052,VALID,127,VALID,2.06886,
2007-12-01, 02:08:00,VALID,917.271,VALID,0,VALID,95.1961,VALID,-0.101885,VALID,20.222,VALID,136,VALID,1.71855,
2007-12-01, 02:09:00,VALID,917.275,VALID,0,VALID,95.2381,VALID,-0.0679233,VALID,20.2215,VALID,107,VALID,0.934028,
2007-12-01, 02:10:00,VALID,917.274,VALID,0,VALID,95.2966,VALID,-0.0849042,VALID,20.2287,VALID,111,VALID,1.21723,
2007-12-01, 02:11:00,VALID,917.281,VALID,0,VALID,95.2813,VALID,-0.118866,VALID,20.2087,VALID,120,VALID,1.77634,
2007-12-01, 02:12:00,VALID,917.283,VALID,0,VALID,95.3665,VALID,0.0339617,VALID,20.204,VALID,128,VALID,1.46689,
2007-12-01, 02:13:00,VALID,917.293,VALID,0,VALID,95.3614,VALID,0.0169808,VALID,20.201,VALID,128,VALID,1.5805,
2007-12-01, 02:14:00,VALID,917.289,VALID,0,VALID,95.2788,VALID,0,VALID,20.2035,VALID,154,VALID,1.87463,
2007-12-01, 02:15:00,VALID,917.284,VALID,0,VALID,95.1923,VALID,0.0509425,VALID,20.2262,VALID,149,VALID,1.1317,
2007-12-01, 02:16:00,VALID,917.287,VALID,0,VALID,95.1821,VALID,0.0509425,VALID,20.2362,VALID,144,VALID,1.35193,
2007-12-01, 02:17:00,VALID,917.285,VALID,0,VALID,95.1987,VALID,0.0679233,VALID,20.2394,VALID,138,VALID,1.32085,
2007-12-01, 02:18:00,VALID,917.272,VALID,0,VALID,95.0969,VALID,0.0169808,VALID,20.2297,VALID,142,VALID,2.32757,
2007-12-01, 02:19:00,VALID,917.277,VALID,0,VALID,94.7879,VALID,0.0169808,VALID,20.2524,VALID,148,VALID,1.95694,
2007-12-01, 02:20:00,VALID,917.268,VALID,0,VALID,94.5336,VALID,0.0339617,VALID,20.3078,VALID,127,VALID,1.24962,
2007-12-01, 02:21:00,VALID,917.248,VALID,0,VALID,94.4154,VALID,0.0339617,VALID,20.3402,VALID,138,VALID,1.66219,
2007-12-01, 02:22:00,VALID,917.233,VALID,0,VALID,94.4205,VALID,0.0509425,VALID,20.3497,VALID,152,VALID,1.20541,
2007-12-01, 02:23:00,VALID,917.204,VALID,0,VALID,94.5057,VALID,0.0169808,VALID,20.3535,VALID,131,VALID,1.27954,
2007-12-01, 02:24:00,VALID,917.179,VALID,0,VALID,94.4726,VALID,0.0339617,VALID,20.3203,VALID,142,VALID,1.94978,
2007-12-01, 02:25:00,VALID,917.158,VALID,0,VALID,94.5552,VALID,0,VALID,20.3238,VALID,126,VALID,1.05078,
2007-12-01, 02:26:00,VALID,917.15,VALID,0,VALID,94.6048,VALID,0,VALID,20.3208,VALID,102,VALID,1.09728,
2007-12-01, 02:27:00,VALID,917.133,VALID,0,VALID,94.6862,VALID,-0.101885,VALID,20.2996,VALID,107,VALID,0.926136,
2007-12-01, 02:28:00,VALID,917.117,VALID,0,VALID,94.8057,VALID,-0.101885,VALID,20.2894,VALID,141,VALID,1.07677,
2007-12-01, 02:29:00,VALID,917.087,VALID,0,VALID,94.8846,VALID,-0.0849042,VALID,20.2831,VALID,134,VALID,1.03196,
2007-12-01, 02:30:00,VALID,917.08,VALID,0,VALID,94.8871,VALID,-0.101885,VALID,20.2869,VALID,116,VALID,1.00854,
2007-12-01, 02:31:00,VALID,917.056,VALID,0,VALID,94.9571,VALID,-0.0849042,VALID,20.2834,VALID,129,VALID,0.58631,
2007-12-01, 02:32:00,VALID,917.037,VALID,0,VALID,94.9787,VALID,-0.101885,VALID,20.2639,VALID,144,VALID,1.12518,
2007-12-01, 02:33:00,VALID,917.029,VALID,0,VALID,94.9176,VALID,-0.0849042,VALID,20.2607,VALID,136,VALID,1.82222,
2007-12-01, 02:34:00,VALID,917.024,VALID,0,VALID,94.6608,VALID,-0.101885,VALID,20.2607,VALID,131,VALID,1.72027,
2007-12-01, 02:35:00,VALID,917.017,VALID,0,VALID,94.4726,VALID,-0.101885,VALID,20.3066,VALID,159,VALID,1.82937,
2007-12-01, 02:36:00,VALID,917.024,VALID,0,VALID,94.4001,VALID,-0.0849042,VALID,20.3126,VALID,137,VALID,1.3324,
2007-12-01, 02:37:00,VALID,917.035,VALID,0,VALID,94.2869,VALID,-0.0679233,VALID,20.3191,VALID,134,VALID,1.66334,
2007-12-01, 02:38:00,VALID,917.018,VALID,0,VALID,94.1585,VALID,-0.0849042,VALID,20.3385,VALID,107,VALID,0.917361,
2007-12-01, 02:39:00,VALID,917.023,VALID,0,VALID,94.1293,VALID,-0.101885,VALID,20.3385,VALID,121,VALID,0.847266,
2007-12-01, 02:40:00,VALID,917.024,VALID,0,VALID,94.2056,VALID,-0.101885,VALID,20.3418,VALID,127,VALID,0.699414,
2007-12-01, 02:41:00,VALID,917.023,VALID,0,VALID,94.2183,VALID,-0.101885,VALID,20.3358,VALID,141,VALID,1.17299,
2007-12-01, 02:42:00,VALID,917.033,VALID,0,VALID,94.217,VALID,0,VALID,20.3243,VALID,152,VALID,1.16297,
2007-12-01, 02:43:00,VALID,917.035,VALID,0,VALID,94.2666,VALID,-0.0169808,VALID,20.3175,VALID,133,VALID,1.06844,
2007-12-01, 02:44:00,VALID,917.025,VALID,0,VALID,94.4154,VALID,0.0339617,VALID,20.3016,VALID,149,VALID,1.15879,
2007-12-01, 02:45:00,VALID,917.009,VALID,0,VALID,94.5527,VALID,0.0169808,VALID,20.2559,VALID,153,VALID,1.0174,
2007-12-01, 02:46:00,VALID,916.996,VALID,0,VALID,94.6506,VALID,0,VALID,20.2467,VALID,120,VALID,0.863839,
2007-12-01, 02:47:00,VALID,916.994,VALID,0,VALID,94.746,VALID,0,VALID,20.2267,VALID,99,VALID,0.640244,
2007-12-01, 02:48:00,VALID,916.97,VALID,0,VALID,94.8147,VALID,0.0169808,VALID,20.1975,VALID,114,VALID,1.35338,
2007-12-01, 02:49:00,VALID,916.948,VALID,0,VALID,94.8998,VALID,-0.0169808,VALID,20.1818,VALID,113,VALID,1.21946,
2007-12-01, 02:50:00,VALID,916.937,VALID,0,VALID,94.7918,VALID,0.0169808,VALID,20.1815,VALID,114,VALID,1.63859,
2007-12-01, 02:51:00,VALID,916.921,VALID,0,VALID,94.6443,VALID,0.0169808,VALID,20.1945,VALID,105,VALID,1.34239,
2007-12-01, 02:52:00,VALID,916.887,VALID,0,VALID,94.3442,VALID,0,VALID,20.2299,VALID,96,VALID,1.48847,
2007-12-01, 02:53:00,VALID,916.875,VALID,0,VALID,94.2399,VALID,-0.0339617,VALID,20.2531,VALID,102,VALID,0.985263,
2007-12-01, 02:54:00,VALID,916.836,VALID,0,VALID,94.2221,VALID,0,VALID,20.2434,VALID,103,VALID,1.03385,
2007-12-01, 02:55:00,VALID,916.815,VALID,0,VALID,94.2946,VALID,-0.0169808,VALID,20.2467,VALID,132,VALID,1.17227,
2007-12-01, 02:56:00,VALID,916.805,VALID,0,VALID,94.3492,VALID,0,VALID,20.2237,VALID,109,VALID,0.95585,
2007-12-01, 02:57:00,VALID,916.784,VALID,0,VALID,94.3403,VALID,0,VALID,20.1977,VALID,101,VALID,1.2359,
2007-12-01, 02:58:00,VALID,916.767,VALID,0,VALID,94.3632,VALID,0,VALID,20.1912,VALID,86,VALID,0.875355,
2007-12-01, 02:59:00,VALID,916.758,VALID,0,VALID,94.4472,VALID,0.0169808,VALID,20.162,VALID,111,VALID,1.09336,
2007-12-01, 03:00:00,VALID,916.766,VALID,0,VALID,94.5527,VALID,0.0339617,VALID,20.1421,VALID,129,VALID,1.33147,
2007-12-01, 03:01:00,VALID,916.761,VALID,0,VALID,94.6087,VALID,0.0169808,VALID,20.1526,VALID,126,VALID,1.44141,
2007-12-01, 03:02:00,VALID,916.757,VALID,0,VALID,94.7396,VALID,0.0169808,VALID,20.1326,VALID,142,VALID,1.59096,
2007-12-01, 03:03:00,VALID,916.776,VALID,0,VALID,94.863,VALID,-0.0169808,VALID,20.1228,VALID,145,VALID,1.49112,
2007-12-01, 03:04:00,VALID,916.771,VALID,0,VALID,94.9075,VALID,0.0339617,VALID,20.1031,VALID,145,VALID,1.33651,
2007-12-01, 03:05:00,VALID,916.771,VALID,0,VALID,94.9711,VALID,0.0169808,VALID,20.0934,VALID,148,VALID,1.71784,
2007-12-01, 03:06:00,VALID,916.764,VALID,0,VALID,94.9533,VALID,0.0169808,VALID,20.0772,VALID,144,VALID,1.71057,
2007-12-01, 03:07:00,VALID,916.771,VALID,0,VALID,94.8795,VALID,0.0339617,VALID,20.0969,VALID,141,VALID,1.41226,
2007-12-01, 03:08:00,VALID,916.771,VALID,0,VALID,94.7816,VALID,0.0679233,VALID,20.0999,VALID,146,VALID,1.60042,
2007-12-01, 03:09:00,VALID,916.761,VALID,0,VALID,94.7829,VALID,0.0509425,VALID,20.0961,VALID,143,VALID,1.47425,
2007-12-01, 03:10:00,VALID,916.761,VALID,0,VALID,94.7574,VALID,0.0339617,VALID,20.1034,VALID,135,VALID,1.55078,
2007-12-01, 03:11:00,VALID,916.767,VALID,0,VALID,94.7638,VALID,0.0509425,VALID,20.1001,VALID,138,VALID,1.59316,
2007-12-01, 03:12:00,VALID,916.783,VALID,0,VALID,94.7943,VALID,-0.0509425,VALID,20.0849,VALID,137,VALID,1.18083,
2007-12-01, 03:13:00,VALID,916.778,VALID,0,VALID,94.8274,VALID,-0.0679233,VALID,20.0887,VALID,133,VALID,1.34738,
2007-12-01, 03:14:00,VALID,916.774,VALID,0,VALID,94.8617,VALID,-0.0679233,VALID,20.0725,VALID,141,VALID,1.4114,
2007-12-01, 03:15:00,VALID,916.761,VALID,0,VALID,94.8897,VALID,-0.0339617,VALID,20.0587,VALID,142,VALID,0.957118,
2007-12-01, 03:16:00,VALID,916.775,VALID,0,VALID,94.793,VALID,-0.0679233,VALID,20.0752,VALID,125,VALID,1.33771,
2007-12-01, 03:17:00,VALID,916.767,VALID,0,VALID,94.7358,VALID,-0.0339617,VALID,20.0787,VALID,128,VALID,1.11663,
2007-12-01, 03:18:00,VALID,916.769,VALID,0,VALID,94.6849,VALID,-0.0679233,VALID,20.0919,VALID,148,VALID,0.391927,
2007-12-01, 03:19:00,VALID,916.766,VALID,0,VALID,94.6697,VALID,-0.0679233,VALID,20.0949,VALID,129,VALID,0.655887,
2007-12-01, 03:20:00,VALID,916.786,VALID,0,VALID,94.6697,VALID,-0.0509425,VALID,20.0917,VALID,142,VALID,1.3346,
2007-12-01, 03:21:00,VALID,916.795,VALID,0,VALID,94.7028,VALID,-0.0679233,VALID,20.0887,VALID,159,VALID,1.37938,
2007-12-01, 03:22:00,VALID,916.818,VALID,0,VALID,94.7218,VALID,-0.0849042,VALID,20.0824,VALID,147,VALID,1.29985,
2007-12-01, 03:23:00,VALID,916.82,VALID,0,VALID,94.7206,VALID,-0.0679233,VALID,20.0889,VALID,135,VALID,1.22972,
2007-12-01, 03:24:00,VALID,916.83,VALID,0,VALID,94.7206,VALID,-0.0849042,VALID,20.0922,VALID,147,VALID,1.16216,
2007-12-01, 03:25:00,VALID,916.844,VALID,0,VALID,94.7142,VALID,-0.0849042,VALID,20.0952,VALID,158,VALID,1.20945,
2007-12-01, 03:26:00,VALID,916.841,VALID,0,VALID,94.6633,VALID,-0.0509425,VALID,20.1081,VALID,147,VALID,1.1854,
2007-12-01, 03:27:00,VALID,916.835,VALID,0,VALID,94.6684,VALID,-0.0849042,VALID,20.1081,VALID,155,VALID,0.893999,
2007-12-01, 03:28:00,VALID,916.861,VALID,0,VALID,94.6722,VALID,-0.0509425,VALID,20.1109,VALID,139,VALID,1.15774,
2007-12-01, 03:29:00,VALID,916.856,VALID,0,VALID,94.7028,VALID,-0.0849042,VALID,20.1114,VALID,157,VALID,1.12292,
2007-12-01, 03:30:00,VALID,916.866,VALID,0,VALID,94.7066,VALID,-0.101885,VALID,20.0984,VALID,146,VALID,0.769159,
2007-12-01, 03:31:00,VALID,916.864,VALID,0,VALID,94.7295,VALID,-0.0849042,VALID,20.1114,VALID,122,VALID,0.636719,
2007-12-01, 03:32:00,VALID,916.863,VALID,0,VALID,94.7333,VALID,-0.101885,VALID,20.1052,VALID,150,VALID,1.10398,